AFR69ZJ LFPG-GMMX

Flight info

Callsign AFR69ZJ
Flight time N/A
Altitude 37000
Route AGOPA DCT ARKIP DCT ARMAL DCT ARTAX DCT BEBIX DCT LMG DCT UVELI DCT OSMOB DCT ARVID DCT PPN DCT NOLSA DCT ALEPO DCT VASUM N10 BAN DCT GOTOR DCT KAMPO DCT MONTO DCT MOLIN DCT VJF N10 LINTO UN10 BARIS UB11 SLK UW900 TIXAL UG850 OBOGA
Aircraft A20N/M-SDE2E3FGHIRWXY/LB1

Departure

Time N/A
Airport Charles de Gaulle International Airport (LFPG)

Arrival

Time 2026-05-04 13:27
Airport Marrakesh Menara Airport (GMMX)
Time Latitude Longitude Altitude Speed Heading
2026-05-04 12:36 34.95226 -5.92982 37077 ft 417 kts 195°
2026-05-04 12:37 34.92402 -5.93593 37104 ft 409 kts 203°
2026-05-04 12:37 34.87263 -5.96282 37105 ft 397 kts 219°
2026-05-04 12:38 34.82990 -6.00315 37102 ft 390 kts 224°
2026-05-04 12:38 34.78785 -6.04497 37104 ft 391 kts 224°
2026-05-04 12:39 34.74570 -6.08667 37102 ft 390 kts 224°
2026-05-04 12:39 34.70360 -6.12829 37097 ft 390 kts 224°
2026-05-04 12:40 34.66190 -6.16948 37094 ft 389 kts 224°
2026-05-04 12:40 34.61988 -6.21093 37092 ft 389 kts 224°
2026-05-04 12:41 34.57787 -6.25232 37084 ft 389 kts 224°
2026-05-04 12:41 34.53573 -6.29339 37093 ft 390 kts 222°
2026-05-04 12:42 34.48916 -6.32816 37096 ft 397 kts 213°
2026-05-04 12:42 34.43759 -6.35292 37097 ft 407 kts 204°
2026-05-04 12:43 34.38307 -6.37182 37093 ft 408 kts 204°
2026-05-04 12:43 34.32858 -6.39093 37089 ft 408 kts 204°
2026-05-04 12:44 34.27407 -6.41006 37090 ft 408 kts 204°
2026-05-04 12:44 34.21945 -6.42919 37105 ft 409 kts 204°
2026-05-04 12:45 34.16479 -6.44831 37104 ft 410 kts 204°
2026-05-04 12:45 34.11000 -6.46744 37105 ft 410 kts 204°
2026-05-04 12:46 34.05520 -6.48655 37100 ft 410 kts 204°
2026-05-04 12:46 34.00120 -6.50771 37104 ft 404 kts 211°
2026-05-04 12:47 33.95298 -6.54054 37102 ft 394 kts 221°
2026-05-04 12:47 33.91229 -6.58370 37104 ft 388 kts 229°
2026-05-04 12:48 33.87395 -6.62892 37104 ft 389 kts 229°
2026-05-04 12:48 33.83519 -6.67431 37105 ft 389 kts 229°
2026-05-04 12:49 33.79640 -6.71966 37103 ft 389 kts 229°
2026-05-04 12:49 33.75752 -6.76506 37104 ft 390 kts 229°
2026-05-04 12:50 33.71862 -6.81044 37102 ft 390 kts 229°
2026-05-04 12:50 33.67972 -6.85576 37104 ft 390 kts 229°
2026-05-04 12:51 33.64074 -6.90109 37104 ft 390 kts 229°
2026-05-04 12:51 33.60178 -6.94634 37112 ft 390 kts 229°
2026-05-04 12:52 33.56282 -6.99155 37106 ft 390 kts 228°
2026-05-04 12:52 33.52382 -7.03673 37098 ft 390 kts 228°
2026-05-04 12:53 33.48513 -7.08149 37105 ft 389 kts 228°
2026-05-04 12:53 33.44614 -7.12655 37101 ft 390 kts 228°
2026-05-04 12:54 33.40710 -7.17160 37108 ft 390 kts 228°
2026-05-04 12:54 33.36805 -7.21661 37108 ft 390 kts 228°
2026-05-04 12:55 33.32901 -7.26155 37109 ft 390 kts 228°
2026-05-04 12:55 33.28994 -7.30646 37111 ft 390 kts 228°
2026-05-04 12:56 33.25088 -7.35130 37108 ft 389 kts 228°
2026-05-04 12:56 33.21179 -7.39611 36997 ft 390 kts 228°
2026-05-04 12:56 33.19220 -7.41854 36749 ft 389 kts 228°
2026-05-04 12:57 33.17268 -7.44088 36501 ft 388 kts 228°
2026-05-04 12:57 33.15165 -7.46124 36249 ft 394 kts 218°
2026-05-04 12:57 33.12717 -7.47671 36005 ft 404 kts 208°
2026-05-04 12:57 33.09989 -7.48644 35752 ft 416 kts 198°
2026-05-04 12:58 33.07060 -7.48954 35497 ft 430 kts 187°
2026-05-04 12:58 33.04041 -7.48517 35258 ft 447 kts 176°
2026-05-04 12:58 33.01005 -7.47646 35012 ft 449 kts 175°
2026-05-04 12:58 32.97974 -7.46774 34760 ft 448 kts 175°
2026-05-04 12:59 32.94980 -7.45921 34516 ft 449 kts 176°
2026-05-04 12:59 32.91892 -7.45046 34265 ft 449 kts 176°
2026-05-04 12:59 32.88849 -7.44186 34010 ft 450 kts 176°
2026-05-04 12:59 32.85799 -7.43326 33763 ft 451 kts 176°
2026-05-04 13:00 32.82748 -7.42468 33514 ft 451 kts 176°
2026-05-04 13:00 32.79747 -7.41624 33271 ft 452 kts 176°
2026-05-04 13:00 32.76630 -7.40748 33016 ft 451 kts 176°
2026-05-04 13:00 32.73617 -7.39901 32771 ft 452 kts 176°
2026-05-04 13:01 32.70552 -7.39041 32521 ft 453 kts 176°
2026-05-04 13:01 32.67489 -7.38183 32272 ft 453 kts 176°
2026-05-04 13:01 32.64419 -7.37322 32023 ft 454 kts 176°
2026-05-04 13:01 32.61341 -7.36460 31774 ft 454 kts 176°
2026-05-04 13:02 32.58266 -7.35598 31527 ft 454 kts 176°
2026-05-04 13:02 32.55190 -7.34736 31271 ft 455 kts 176°
2026-05-04 13:02 32.52114 -7.33874 31026 ft 455 kts 176°
2026-05-04 13:02 32.49035 -7.33013 30776 ft 454 kts 176°
2026-05-04 13:03 32.45966 -7.32153 30529 ft 452 kts 176°
2026-05-04 13:03 32.42909 -7.31297 30277 ft 450 kts 176°
2026-05-04 13:03 32.39867 -7.30447 30026 ft 448 kts 176°
2026-05-04 13:03 32.36840 -7.29603 29775 ft 446 kts 176°
2026-05-04 13:04 32.33822 -7.28768 29525 ft 444 kts 178°
2026-05-04 13:04 32.30820 -7.28384 29273 ft 426 kts 189°
2026-05-04 13:04 32.27927 -7.28736 29024 ft 411 kts 200°
2026-05-04 13:04 32.25249 -7.29730 28775 ft 398 kts 211°
2026-05-04 13:05 32.22848 -7.31274 28519 ft 388 kts 220°
2026-05-04 13:05 32.20788 -7.33272 28282 ft 380 kts 230°
2026-05-04 13:05 32.19045 -7.35538 28037 ft 376 kts 232°
2026-05-04 13:05 32.17304 -7.37836 27786 ft 375 kts 232°
2026-05-04 13:06 32.15564 -7.40118 27536 ft 373 kts 232°
2026-05-04 13:06 32.13831 -7.42384 27287 ft 371 kts 232°
2026-05-04 13:06 32.12104 -7.44643 27037 ft 370 kts 232°
2026-05-04 13:06 32.10383 -7.46890 26787 ft 368 kts 232°
2026-05-04 13:07 32.08674 -7.49123 26544 ft 366 kts 232°
2026-05-04 13:07 32.06970 -7.51347 26288 ft 365 kts 232°
2026-05-04 13:07 32.05272 -7.53557 26032 ft 363 kts 232°
2026-05-04 13:07 32.03579 -7.55758 25788 ft 361 kts 232°
2026-05-04 13:08 32.01894 -7.57947 25535 ft 360 kts 232°
2026-05-04 13:08 32.00215 -7.60127 25292 ft 358 kts 232°
2026-05-04 13:08 31.98544 -7.62297 25037 ft 357 kts 232°
2026-05-04 13:08 31.96878 -7.64458 24787 ft 356 kts 232°
2026-05-04 13:09 31.95217 -7.66611 24445 ft 354 kts 232°
2026-05-04 13:09 31.93567 -7.68749 23991 ft 351 kts 232°
2026-05-04 13:09 31.91956 -7.70833 23528 ft 346 kts 232°
2026-05-04 13:09 31.90328 -7.72939 23080 ft 340 kts 232°
2026-05-04 13:10 31.88749 -7.74980 22638 ft 334 kts 232°
2026-05-04 13:10 31.87199 -7.76984 22192 ft 329 kts 232°
2026-05-04 13:10 31.85714 -7.78991 21754 ft 320 kts 237°
2026-05-04 13:10 31.84613 -7.81214 21335 ft 311 kts 248°
2026-05-04 13:11 31.83963 -7.83612 20931 ft 305 kts 258°
2026-05-04 13:11 31.83759 -7.86077 20514 ft 302 kts 267°
2026-05-04 13:11 31.83776 -7.88526 20110 ft 297 kts 266°
2026-05-04 13:11 31.83778 -7.90931 19724 ft 297 kts 266°
2026-05-04 13:12 31.83767 -7.93440 19299 ft 323 kts 266°
2026-05-04 13:12 31.83756 -7.96133 18852 ft 334 kts 266°
2026-05-04 13:12 31.83749 -7.98874 18394 ft 335 kts 266°
2026-05-04 13:12 31.83745 -8.01603 17942 ft 332 kts 266°
2026-05-04 13:13 31.83741 -8.04287 17485 ft 325 kts 266°
2026-05-04 13:13 31.83736 -8.06921 17042 ft 318 kts 266°
2026-05-04 13:13 31.83730 -8.09493 16600 ft 311 kts 266°
2026-05-04 13:13 31.83723 -8.12012 16174 ft 305 kts 266°
2026-05-04 13:14 31.83715 -8.14478 15766 ft 299 kts 266°
2026-05-04 13:14 31.83706 -8.16895 15362 ft 292 kts 266°
2026-05-04 13:14 31.83697 -8.19259 14961 ft 286 kts 266°
2026-05-04 13:14 31.83688 -8.21578 14568 ft 280 kts 266°
2026-05-04 13:15 31.83679 -8.23848 14182 ft 274 kts 266°
2026-05-04 13:15 31.83669 -8.26068 13813 ft 269 kts 266°
2026-05-04 13:15 31.83659 -8.28241 13451 ft 263 kts 266°
2026-05-04 13:15 31.83649 -8.30374 13091 ft 258 kts 266°
2026-05-04 13:16 31.83639 -8.32469 12800 ft 264 kts 265°
2026-05-04 13:16 31.83618 -8.34724 12707 ft 283 kts 264°
2026-05-04 13:16 31.83272 -8.36989 12647 ft 282 kts 251°
2026-05-04 13:16 31.82357 -8.39028 12307 ft 284 kts 237°
2026-05-04 13:17 31.80946 -8.40632 11843 ft 290 kts 222°
2026-05-04 13:17 31.79129 -8.41722 11353 ft 294 kts 212°
2026-05-04 13:17 31.77278 -8.42645 10879 ft 283 kts 213°
2026-05-04 13:17 31.75502 -8.43536 10404 ft 272 kts 213°
2026-05-04 13:18 31.73796 -8.44403 9923 ft 263 kts 214°
2026-05-04 13:18 31.72145 -8.45249 9455 ft 254 kts 214°
2026-05-04 13:18 31.70550 -8.46070 8976 ft 247 kts 214°
2026-05-04 13:18 31.69001 -8.46869 8524 ft 239 kts 215°
2026-05-04 13:19 31.67509 -8.47631 8149 ft 229 kts 215°
2026-05-04 13:19 31.66532 -8.48124 7896 ft 223 kts 215°
2026-05-04 13:19 31.64919 -8.49339 7386 ft 194 kts 240°
2026-05-04 13:19 31.64551 -8.50778 7015 ft 186 kts 269°
2026-05-04 13:20 31.65067 -8.52189 6635 ft 202 kts 299°
2026-05-04 13:20 31.66361 -8.53063 6363 ft 238 kts 330°
2026-05-04 13:20 31.68151 -8.53058 6121 ft 277 kts
2026-05-04 13:20 31.69956 -8.52028 5876 ft 303 kts 30°
2026-05-04 13:21 31.71347 -8.50089 5626 ft 318 kts 60°
2026-05-04 13:21 31.71966 -8.47607 5377 ft 318 kts 91°
2026-05-04 13:21 31.71730 -8.45095 5129 ft 304 kts 118°
2026-05-04 13:21 31.70915 -8.42908 4892 ft 294 kts 129°
2026-05-04 13:22 31.70010 -8.40762 4647 ft 292 kts 129°
2026-05-04 13:22 31.69118 -8.38644 4397 ft 290 kts 129°
2026-05-04 13:22 31.68222 -8.36521 4151 ft 289 kts 129°
2026-05-04 13:22 31.67334 -8.34420 3894 ft 286 kts 129°
2026-05-04 13:23 31.66443 -8.32312 3637 ft 283 kts 129°
2026-05-04 13:23 31.65591 -8.30269 3393 ft 282 kts 129°
2026-05-04 13:23 31.64736 -8.28204 3209 ft 281 kts 129°
2026-05-04 13:23 31.63886 -8.26142 3200 ft 281 kts 129°
2026-05-04 13:24 31.63036 -8.24070 3197 ft 285 kts 126°
2026-05-04 13:24 31.62417 -8.21871 3196 ft 280 kts 112°
2026-05-04 13:24 31.62113 -8.19698 3199 ft 267 kts 106°
2026-05-04 13:25 31.61731 -8.15415 3191 ft 242 kts 106°
2026-05-04 13:25 31.61557 -8.13495 2908 ft 236 kts 107°
2026-05-04 13:25 31.61391 -8.11606 2625 ft 228 kts 106°
2026-05-04 13:25 31.61233 -8.09790 2311 ft 219 kts 106°
2026-05-04 13:26 31.61082 -8.08069 2017 ft 206 kts 105°
2026-05-04 13:26 31.60938 -8.06436 1763 ft 197 kts 105°
2026-05-04 13:26 31.60800 -8.04884 1555 ft 184 kts 103°
2026-05-04 13:26 31.60719 -8.03939 1537 ft 169 kts 103°
2026-05-04 13:27 31.60569 -8.02704 1539 ft 43 kts 93°
2026-05-04 13:27 31.60590 -8.02427 1541 ft 68 kts 84°
2026-05-04 13:27 31.60446 -8.02045 1552 ft 26 kts 182°
2026-05-04 13:27 31.60341 -8.02066 1553 ft 20 kts 181°
2026-05-04 13:28 31.60275 -8.02067 1553 ft 0 kts 181°